Theta_e
338 340 340 341 343 343 344 344 344 344 344 344 345 345 346 346 347 347 347 348 348 348 349 349 349 350 349 349 349 350 349 348 347 346 345 344 342 339 336 335 336 338 340 340 340 341 340 340 341 341 340 340 339 339 338 337 336 337 338 333 324 319 320
338 339 339 340 342 343 343 343 343 344 344 344 345 345 346 346 346 347 347 348 348 348 349 349 349 349 349 349 349 350 350 349 349 347 345 344 342 340 337 336 337 339 340 340 340 341 341 341 341 340 339 338 338 338 337 336 336 337 338 332 322 318 319
339 339 339 339 341 342 343 343 343 344 344 344 345 345 346 346 346 347 347 348 348 349 349 349 350 350 349 349 349 349 350 350 349 348 347 345 342 340 338 337 337 339 340 341 340 340 341 341 341 341 340 338 337 337 336 336 336 337 337 335 328 321 319
340 340 340 339 340 341 342 343 343 344 344 344 345 345 345 346 346 347 347 348 349 349 350 349 350 350 349 350 350 349 350 350 349 349 348 346 343 340 339 338 337 338 340 341 341 341 341 342 343 342 342 340 338 336 335 335 336 337 337 337 334 328 321
341 341 341 340 340 341 341 342 343 344 344 344 345 345 345 346 346 347 348 348 348 349 349 349 349 350 350 349 349 349 349 349 349 349 348 348 345 342 340 338 337 337 338 340 341 342 342 342 343 343 342 341 339 337 336 336 336 337 337 337 336 332 325
341 342 342 341 341 341 341 342 343 343 344 344 344 345 345 346 347 347 348 348 349 349 349 350 350 350 350 350 350 349 349 349 349 349 349 348 347 344 340 337 337 337 337 338 340 342 342 342 343 343 343 342 340 339 337 336 336 337 338 337 336 333 327
341 342 342 342 342 342 341 342 342 342 343 343 344 345 345 346 347 347 348 348 349 350 350 350 350 350 350 350 350 350 350 349 349 349 349 349 348 347 341 336 336 336 337 338 339 342 343 343 343 343 343 342 341 340 338 337 336 337 338 338 337 335 330
340 342 342 343 343 343 342 342 342 342 343 344 344 345 346 346 347 347 348 349 349 350 350 350 350 350 351 350 351 350 350 350 349 349 349 349 349 348 344 338 336 336 337 338 339 341 343 343 343 343 343 343 341 341 340 338 336 337 338 338 339 338 335
341 341 341 343 343 344 344 343 343 343 343 344 344 346 346 346 347 347 347 348 349 350 350 350 350 350 350 351 350 350 350 350 350 349 350 350 349 349 346 341 337 336 337 338 339 341 342 343 343 343 343 343 342 342 341 340 338 337 338 340 340 340 338
341 340 341 343 342 344 344 344 344 344 343 344 344 345 346 346 347 347 347 348 349 349 349 350 350 350 351 351 350 350 351 350 350 350 350 350 350 349 346 343 339 336 337 338 339 341 342 343 343 343 343 342 342 342 341 340 340 339 339 340 341 340 339
340 340 340 342 342 343 344 344 345 345 344 345 345 345 346 346 347 347 348 349 348 348 349 349 350 351 350 351 350 351 351 350 351 351 351 351 351 349 347 344 341 337 336 338 339 341 342 342 343 344 343 342 342 342 341 340 340 340 339 340 341 341 340
338 340 341 341 342 343 343 344 345 345 346 345 345 346 346 346 347 347 348 349 348 349 349 350 350 351 351 351 351 351 351 351 351 351 352 352 351 350 349 347 343 338 337 337 339 341 342 342 342 343 342 342 342 342 342 342 341 341 340 340 341 342 341
337 339 339 341 342 342 343 344 345 345 346 346 346 346 346 346 347 348 348 348 349 349 350 350 350 351 351 351 351 351 351 351 352 352 352 352 352 351 350 348 345 340 337 337 339 340 341 341 342 342 342 342 342 342 342 343 343 343 342 341 341 342 342
338 338 339 341 341 342 343 343 344 345 345 346 346 346 347 347 347 347 348 348 348 350 350 351 351 351 352 352 352 352 352 351 352 352 352 352 352 352 351 350 346 341 338 338 338 339 340 340 341 342 342 342 342 342 342 343 344 344 343 343 343 343 343
337 337 339 340 341 342 343 342 344 345 345 346 346 346 347 347 348 348 349 349 349 350 350 351 351 351 352 352 353 352 352 352 352 353 353 353 353 353 352 351 348 344 341 339 337 338 339 339 340 342 342 342 342 342 342 342 343 343 344 344 344 344 344
336 337 338 340 341 341 342 342 343 343 345 346 345 347 347 347 348 349 349 349 350 350 351 352 352 352 352 352 352 352 353 353 353 352 353 353 353 353 353 352 350 348 344 339 336 337 338 339 340 341 342 342 342 342 342 342 343 343 344 345 345 345 345
335 336 338 340 341 342 342 343 343 343 344 345 345 346 347 347 348 349 349 350 349 350 350 352 352 352 352 352 352 353 353 354 353 353 354 354 354 354 354 353 352 350 346 341 338 336 337 338 339 340 342 343 343 343 342 343 343 344 345 346 347 347 346
334 335 338 340 341 342 342 343 343 343 344 344 345 346 346 347 348 348 350 350 350 350 351 351 353 352 352 352 352 353 354 354 354 354 354 354 354 354 354 354 353 351 348 344 339 336 336 337 338 339 341 343 344 343 343 343 344 345 346 347 347 347 347
335 335 337 340 341 342 343 343 343 344 344 344 345 345 346 347 347 348 349 349 349 350 351 352 352 352 352 352 353 353 354 354 355 355 354 355 355 355 355 355 354 352 349 345 341 338 337 337 337 339 340 343 344 343 343 343 344 345 347 347 347 347 348
339 339 337 339 341 342 343 343 343 343 344 344 345 345 346 346 347 346 347 349 350 351 351 352 352 353 353 352 353 354 354 355 355 354 354 355 356 356 356 355 353 351 348 346 345 342 338 336 337 338 340 341 342 342 342 343 344 345 347 347 348 348 349
342 342 339 339 340 341 342 343 344 344 345 345 345 345 346 346 346 347 347 349 351 351 351 352 352 352 353 352 353 353 354 355 355 354 355 356 357 357 356 355 354 352 349 349 346 342 339 338 337 338 339 340 341 342 343 343 344 346 347 348 348 349 351
341 342 342 341 340 341 342 341 342 342 342 343 345 345 346 346 346 346 347 349 350 350 350 351 351 352 352 353 354 353 354 355 355 355 356 357 357 357 356 355 355 353 351 350 346 344 343 342 340 339 340 340 341 343 344 344 345 346 348 349 349 350 353
340 341 343 344 342 342 342 342 342 343 342 342 344 344 345 346 345 346 348 349 350 350 351 351 351 352 352 353 354 354 354 355 356 356 357 357 358 357 356 356 355 354 353 351 348 346 345 343 342 341 341 341 342 343 344 344 345 347 349 350 351 352 354
342 342 342 342 343 344 344 343 343 344 343 344 345 345 345 345 346 347 348 349 350 350 351 352 352 352 352 352 353 353 354 355 357 357 357 357 358 357 357 357 356 355 354 352 348 345 344 344 344 342 341 341 342 342 343 344 345 348 350 351 352 354 354
345 345 343 341 341 341 342 344 345 346 346 346 346 346 347 347 347 348 349 350 351 351 351 351 351 351 351 352 352 354 355 356 357 357 357 357 357 357 358 357 357 357 356 354 350 347 346 346 345 343 342 342 341 342 344 346 348 349 351 353 354 356 355
342 342 342 341 340 339 338 339 341 343 347 348 348 348 347 347 348 348 349 350 351 352 351 348 348 349 351 352 354 355 355 356 357 357 357 357 357 358 358 358 358 358 357 355 353 352 350 349 348 347 345 343 343 343 346 348 350 352 353 355 356 358 357
343 341 340 338 337 338 337 336 336 339 342 345 348 349 349 348 348 348 349 349 350 351 348 343 342 345 348 353 354 355 356 356 357 357 357 357 358 358 359 359 358 358 357 357 356 355 353 352 351 350 349 346 346 347 348 351 352 353 356 357 359 359 359
345 344 343 341 340 338 337 336 336 337 338 340 342 345 348 351 351 350 350 350 350 350 348 345 346 347 351 354 355 355 356 356 357 357 357 358 358 359 359 359 359 358 357 357 357 356 355 354 353 353 352 350 350 351 352 353 354 356 358 359 360 360 359
348 347 345 344 344 343 342 341 338 337 337 336 336 338 341 344 347 350 352 352 350 349 349 349 349 351 354 357 357 357 357 356 356 357 358 358 359 359 360 360 359 359 358 358 358 358 357 356 355 355 354 354 354 354 355 356 357 359 360 360 360 359 357
351 351 349 346 343 344 346 347 345 343 341 339 337 336 336 337 339 342 345 347 347 351 354 353 352 353 354 355 356 357 357 357 357 357 357 358 358 359 360 360 360 360 359 358 358 359 358 357 356 355 355 356 356 357 357 358 359 361 361 360 359 357 355
348 349 351 350 349 349 349 350 350 349 348 345 342 339 338 339 340 342 343 343 348 354 357 358 357 356 354 354 353 354 355 356 357 357 358 358 359 360 360 360 360 360 360 359 359 358 359 358 357 356 356 357 358 359 359 360 361 361 360 359 357 355 353
348 348 349 349 350 351 351 351 352 351 350 349 347 344 343 343 344 345 345 345 350 354 356 358 360 359 357 357 356 355 356 358 358 358 358 358 359 360 360 360 361 360 360 360 359 359 359 358 358 358 358 359 360 360 361 361 361 360 359 357 355 353 350
347 348 349 349 350 350 350 351 352 352 351 350 349 347 346 344 343 344 344 345 347 350 352 354 356 355 355 357 359 359 360 360 359 359 359 359 360 361 361 361 361 360 360 360 359 359 359 359 359 359 360 360 361 361 361 361 360 359 358 355 351 349 347
345 346 348 349 351 351 351 352 352 352 353 352 352 351 349 348 346 345 345 344 344 344 348 352 356 357 355 356 359 361 362 361 361 360 359 360 360 361 362 362 361 361 361 360 359 360 359 359 360 360 360 361 361 361 361 360 359 358 355 350 346 345 344
344 345 346 349 350 350 351 351 351 352 352 352 353 353 352 352 351 350 351 351 350 351 353 357 361 363 363 361 362 363 363 362 362 361 360 360 361 361 362 362 362 361 361 361 360 360 358 359 360 360 361 361 361 361 360 359 357 355 351 346 343 342 342
342 343 345 347 348 349 349 350 349 350 351 351 352 352 352 351 351 351 353 354 354 356 358 360 361 362 363 364 363 363 363 363 362 361 361 361 361 361 362 362 362 362 361 361 360 359 360 359 359 360 361 361 361 361 359 355 352 349 345 342 341 340 339
342 342 343 344 345 346 346 347 347 348 348 349 349 349 350 350 349 349 349 350 350 352 356 360 363 363 363 363 363 363 364 363 363 362 362 362 362 362 363 363 363 362 361 360 360 359 360 361 360 361 361 361 360 358 353 348 345 343 341 340 339 338 338
344 344 343 343 344 344 344 345 345 345 345 346 346 346 347 347 346 347 347 347 347 348 350 355 360 361 360 361 362 364 365 364 364 363 362 362 363 363 363 363 361 359 358 358 358 359 360 359 359 360 358 356 353 349 345 342 341 340 339 338 337 337 337
Wind_Speed
43 44 46 48 50 51 53 55 56 57 57 58 58 58 58 58 58 57 57 58 57 56 55 54 52 51 50 48 46 45 43 41 39 39 40 40 39 38 38 37 36 34 33 32 30 28 27 27 26 25 24 24 24 22 21 20 19 18 15 14 14 13 14
39 44 46 47 50 51 53 55 56 57 58 58 59 58 58 58 58 58 58 58 58 57 56 55 54 53 51 49 48 47 45 43 41 39 39 40 39 38 38 38 37 35 33 32 30 29 28 27 26 26 24 24 24 23 21 21 20 19 16 15 15 14 15
40 44 46 48 51 53 55 55 56 57 58 58 58 58 59 60 60 60 59 59 58 57 57 56 55 54 52 50 49 48 47 45 43 42 40 39 39 39 39 39 38 36 34 33 32 30 29 28 27 26 25 25 25 23 22 22 21 20 18 17 16 15 15
41 46 49 50 52 54 55 56 57 58 59 59 59 59 60 61 61 60 60 59 59 58 57 57 56 55 53 51 50 49 48 47 45 43 41 38 38 39 39 40 40 39 37 35 33 32 31 30 28 27 27 27 26 24 24 23 22 21 20 19 18 17 16
40 45 47 47 49 52 54 56 57 58 59 59 59 59 60 60 60 60 60 59 59 58 58 57 56 55 54 53 51 50 49 47 46 44 42 40 38 39 41 41 41 40 40 38 35 34 33 31 30 29 28 28 27 26 26 25 24 23 22 21 20 19 18
39 43 44 46 49 51 54 56 57 59 60 60 59 59 59 58 58 59 59 59 59 58 57 57 56 56 55 54 53 52 50 48 47 45 43 41 39 40 41 41 41 41 41 39 38 36 35 33 32 30 30 29 29 28 28 28 27 25 24 23 23 22 20
41 43 45 48 49 52 56 57 58 59 60 60 59 58 56 55 56 57 58 58 59 58 57 57 57 57 56 55 54 53 51 49 48 46 44 42 41 40 41 41 42 42 41 40 39 38 37 36 34 32 31 31 30 30 29 29 28 27 27 26 25 24 23
44 44 47 49 50 53 56 56 57 57 58 58 56 55 54 54 55 56 57 58 58 58 58 59 58 58 57 55 55 54 52 50 48 46 44 43 42 41 40 42 42 42 41 41 40 40 39 38 36 34 33 33 33 32 31 31 30 29 29 28 27 25 24
45 45 48 49 50 53 54 56 57 56 55 55 54 54 53 54 55 56 57 58 58 58 59 59 58 58 56 55 55 54 52 51 49 47 45 43 42 41 41 41 42 41 42 42 41 40 40 39 37 36 35 34 34 33 32 32 31 31 31 30 28 27 26
42 43 45 46 48 52 53 54 54 53 53 53 53 54 54 54 55 56 57 57 58 59 59 58 58 57 56 56 55 54 53 52 50 49 47 45 43 42 41 41 41 42 41 41 41 41 40 40 39 38 37 36 35 35 33 33 32 33 32 31 30 29 28
35 36 40 42 46 49 50 49 49 51 53 53 54 54 55 55 55 56 56 57 58 59 58 57 57 57 56 56 55 54 54 53 51 50 48 46 44 42 41 40 41 41 41 41 41 41 41 40 40 39 38 38 37 36 35 34 33 34 34 33 32 31 30
35 34 35 40 44 46 47 47 49 51 53 54 55 55 55 56 55 55 56 57 58 58 57 57 57 56 56 56 55 54 54 53 52 51 49 47 44 43 41 41 41 41 42 42 42 41 41 40 41 40 40 39 38 37 36 35 34 34 34 34 33 32 32
36 36 36 39 42 45 45 46 48 51 53 54 54 55 56 56 56 56 56 57 57 57 56 57 56 56 56 55 55 54 54 53 52 51 49 47 45 43 42 41 41 41 42 42 42 41 41 41 41 41 40 40 39 38 38 36 35 35 35 35 35 34 34
33 35 37 39 43 44 44 46 49 51 52 54 54 55 55 56 56 56 56 57 56 56 56 56 56 55 55 55 55 54 53 52 51 50 48 46 45 44 43 42 41 41 42 42 42 42 41 41 41 40 40 41 40 40 39 38 37 36 36 36 36 36 35
29 32 35 39 42 43 43 45 49 50 52 53 53 53 54 54 54 55 55 55 55 55 55 55 55 55 55 55 55 54 53 52 50 49 48 47 46 45 44 43 42 41 42 43 43 42 41 41 41 40 41 42 41 41 40 39 39 38 37 36 36 36 35
29 31 33 37 42 44 45 48 50 50 51 51 52 53 54 54 54 54 55 55 55 55 55 54 55 55 55 55 55 54 53 52 51 49 48 48 47 46 45 44 43 42 42 43 43 43 42 42 42 42 42 43 42 42 41 41 40 39 38 37 36 35 34
30 32 33 36 41 44 46 47 48 48 49 51 53 53 54 54 54 54 54 54 55 55 55 54 54 55 55 55 54 53 53 52 51 50 49 48 48 47 46 45 44 43 42 42 43 43 43 43 43 43 43 43 43 43 43 42 41 40 39 37 35 34 33
26 31 34 35 38 39 40 42 43 45 48 51 52 52 52 53 53 53 53 54 55 55 55 54 54 55 55 54 54 53 53 53 52 51 50 49 48 48 47 45 44 44 43 43 43 43 44 44 44 45 44 44 45 44 44 43 41 40 39 37 35 32 32
22 27 33 36 37 38 39 41 43 46 50 51 51 51 52 52 52 52 53 54 55 54 54 54 54 55 54 54 54 54 54 53 52 51 51 50 49 48 47 46 45 45 44 44 43 43 44 44 44 45 45 45 45 45 44 43 42 41 39 37 33 30 30
21 23 29 34 36 38 40 43 45 47 48 50 50 51 51 51 51 51 52 53 53 53 53 53 54 54 54 54 54 54 54 53 53 52 51 51 50 49 48 47 46 45 45 45 44 44 44 44 45 45 45 46 45 44 44 43 42 41 39 36 31 28 28
16 18 22 29 33 35 37 39 43 45 46 48 50 49 49 49 48 48 50 51 52 52 53 53 53 54 54 54 55 55 54 54 53 52 51 51 51 50 49 49 47 46 46 46 46 45 45 45 44 44 45 45 44 44 44 43 42 41 39 35 30 26 27
7 11 16 21 27 32 35 37 40 40 40 44 48 49 48 47 46 47 50 51 51 51 52 52 53 54 54 54 55 55 55 55 54 52 51 51 51 51 51 50 49 48 47 47 46 46 46 45 45 44 44 43 43 44 44 42 41 40 38 34 28 26 29
2 6 11 15 20 25 29 33 36 35 34 37 42 44 45 44 44 47 49 49 50 50 50 51 52 53 53 54 55 55 55 54 54 52 52 52 53 53 52 51 51 50 49 48 47 47 47 47 45 45 44 42 43 43 42 41 40 39 37 33 28 28 33
7 4 5 9 14 17 20 24 28 31 32 33 36 39 41 42 43 46 47 48 48 48 49 50 51 51 52 53 54 54 54 54 53 52 52 53 54 54 53 52 51 51 50 49 48 47 47 46 45 44 43 42 42 41 40 39 38 37 36 31 27 30 33
11 10 8 6 5 8 12 16 20 24 28 30 32 34 37 41 43 44 45 47 46 46 47 48 49 50 51 52 53 53 53 53 53 52 52 53 54 54 53 52 52 52 51 49 49 48 47 46 45 45 44 42 41 39 39 39 38 36 34 29 27 31 32
10 10 9 9 8 5 2 6 9 13 19 24 27 28 30 34 38 41 44 45 45 46 47 46 46 47 49 50 51 50 51 52 52 52 53 53 54 53 53 52 51 51 51 50 50 48 46 46 46 45 44 42 40 39 39 38 37 34 31 27 28 30 31
9 8 8 7 6 6 5 1 0 2 5 10 16 21 25 29 33 38 41 42 43 46 48 46 45 45 47 48 49 49 50 51 52 52 53 53 53 53 52 51 51 51 51 50 50 48 47 46 46 46 44 42 40 39 38 37 35 32 28 27 28 29 29
7 6 6 6 6 6 5 4 3 3 4 4 6 10 16 21 27 32 35 38 42 45 47 46 45 45 45 47 48 49 50 51 52 52 52 53 53 52 52 52 51 50 50 49 49 48 47 46 46 45 44 42 40 39 37 35 32 30 28 27 27 27 27
5 4 3 4 5 5 5 6 6 5 5 5 5 6 8 12 17 22 28 33 37 41 43 44 45 46 45 45 47 48 49 50 51 52 52 53 54 54 53 52 50 49 49 49 49 48 48 47 46 45 43 42 41 38 36 34 31 29 28 27 27 25 24
4 3 1 1 3 4 5 6 6 6 7 7 6 6 7 9 12 15 21 24 28 33 38 40 43 45 46 45 46 47 49 50 51 52 53 54 55 55 54 52 50 50 49 49 48 48 48 48 46 44 43 42 41 38 35 33 30 29 28 28 27 25 23
3 2 1 1 2 3 4 5 6 6 6 7 8 8 9 10 12 14 17 18 22 29 35 37 39 42 44 45 46 48 50 52 52 53 54 54 55 56 56 54 52 51 50 50 49 49 49 48 46 44 43 42 40 37 35 32 31 29 29 28 26 24 23
4 2 1 2 4 5 5 6 6 6 6 7 8 10 11 12 14 16 18 19 22 27 30 33 36 40 42 45 47 49 50 52 52 53 53 53 53 54 56 55 54 52 51 50 49 50 49 48 45 44 43 41 38 36 34 32 31 30 29 28 26 24 23
6 4 3 2 3 3 4 5 6 7 8 9 10 12 13 15 16 18 19 21 22 24 26 28 32 35 39 43 47 49 50 51 51 51 50 51 52 52 53 54 54 53 52 51 51 51 49 47 46 44 42 39 37 35 34 33 31 30 29 28 26 25 24
7 6 6 5 5 5 4 5 5 6 8 10 11 12 14 15 17 19 21 22 24 26 27 28 30 33 37 41 45 48 50 51 51 51 50 50 51 51 52 53 54 54 54 54 54 54 51 49 47 44 41 38 37 36 34 32 31 30 29 28 26 25 25
8 7 7 6 6 7 7 7 7 8 9 11 11 11 12 12 14 17 19 22 24 27 28 28 27 30 35 39 43 46 48 49 51 52 52 52 53 53 53 55 56 55 55 55 54 53 51 49 46 43 40 37 36 36 34 32 31 30 28 26 24 23 23
7 7 7 7 6 6 6 7 8 9 10 11 12 12 12 12 13 15 17 18 21 24 27 27 26 27 31 36 40 43 45 47 49 51 52 53 56 57 57 57 57 57 56 55 51 48 48 46 42 39 37 36 34 32 30 28 28 27 25 23 21 20 20
11 10 9 8 6 6 6 6 7 8 9 9 10 11 12 14 16 17 18 18 18 20 23 25 26 27 30 34 38 42 45 48 50 53 55 57 59 61 61 59 57 55 54 51 48 47 46 43 37 34 33 31 30 28 25 22 22 23 22 21 20 21 21
17 16 15 14 13 11 11 10 9 8 6 6 7 10 13 15 16 16 17 18 18 17 17 19 23 26 29 32 36 40 45 49 53 54 55 57 58 60 61 61 56 50 45 43 43 44 42 36 30 28 27 25 24 25 24 22 21 21 22 22 22 22 21
Wind_Direction
207 209 210 210 211 211 212 213 213 214 214 215 216 216 216 216 217 217 218 220 221 223 223 224 225 226 226 228 229 229 230 231 233 234 235 236 235 233 232 229 229 229 229 228 227 226 226 227 229 233 235 236 235 230 228 229 229 230 230 233 234 231 231
206 210 210 210 211 212 214 214 214 214 215 216 217 216 216 216 216 217 218 220 221 222 223 224 225 226 227 228 229 229 230 231 232 234 236 237 236 234 232 230 230 231 230 230 230 230 229 230 232 236 237 236 234 230 228 229 229 229 230 231 233 233 232
207 210 210 210 212 213 214 215 215 216 216 217 217 216 216 217 217 218 219 220 221 221 222 223 225 226 227 228 228 229 231 232 232 233 235 237 236 234 232 231 232 232 233 232 232 232 232 233 235 237 238 237 233 230 229 228 228 229 230 231 234 236 234
208 210 211 212 212 213 215 216 216 216 217 218 218 218 218 218 219 219 219 220 221 221 221 223 224 225 227 228 228 230 231 232 233 233 235 237 237 236 234 233 232 233 233 234 234 234 234 235 237 238 239 238 234 231 230 229 228 228 230 231 234 237 236
210 212 212 212 212 213 215 216 217 217 218 219 219 220 221 220 218 218 219 220 221 223 224 224 224 225 226 228 229 230 231 232 233 234 235 236 237 237 235 234 233 233 234 235 235 235 235 236 237 238 238 238 236 233 232 232 229 228 229 231 234 237 237
211 212 211 212 212 213 215 217 217 218 219 220 220 221 221 219 217 218 219 219 221 223 223 223 224 224 225 227 229 230 231 232 233 233 234 235 236 237 235 234 234 234 234 235 236 236 236 236 236 237 237 237 236 234 233 233 231 229 230 231 234 237 238
213 212 212 212 212 213 215 217 218 219 220 221 221 221 220 217 218 218 218 219 220 221 221 222 223 224 225 226 228 229 230 232 232 233 234 234 236 237 236 234 234 234 235 236 236 236 236 236 236 237 237 237 237 236 234 234 233 232 231 232 234 236 238
217 213 213 212 212 213 215 216 218 218 219 220 220 219 218 217 218 218 218 219 220 220 221 222 223 224 225 226 227 229 230 231 232 232 233 234 235 236 235 233 233 233 234 235 236 236 237 237 236 236 237 238 238 237 236 236 235 234 234 234 234 236 238
220 217 215 213 212 214 215 216 218 218 218 219 219 218 218 218 218 218 219 219 219 220 222 223 223 224 225 226 228 229 230 231 232 232 233 233 233 234 233 232 231 232 233 234 235 236 237 237 237 237 238 239 239 239 238 237 236 236 236 236 236 237 240
224 221 218 215 212 214 216 216 217 216 216 218 218 218 219 218 219 219 219 218 218 221 223 223 223 223 224 226 227 229 229 230 231 231 232 233 232 232 231 230 230 231 232 233 234 235 236 236 237 238 239 240 240 241 240 239 238 237 238 238 239 240 243
230 226 220 216 213 215 216 215 215 215 216 217 218 218 219 219 219 218 218 218 220 222 222 221 222 223 224 225 226 227 229 230 230 231 232 233 232 231 230 229 229 230 231 232 233 235 235 236 237 237 238 240 241 241 242 241 240 239 240 241 242 243 245
230 228 223 218 215 215 215 214 215 215 216 217 217 218 219 219 218 218 219 220 221 222 221 220 221 222 223 224 225 227 229 229 230 231 232 233 232 231 230 229 229 229 230 231 233 234 235 236 237 238 239 241 242 243 244 243 243 242 242 243 243 244 246
226 224 222 219 217 217 215 214 214 215 216 218 218 219 219 219 219 219 219 221 221 221 220 220 221 221 223 223 224 226 229 230 231 232 233 234 233 232 231 230 229 229 229 231 232 234 235 236 237 239 241 242 243 245 245 246 246 245 245 245 245 245 247
225 222 221 217 217 218 216 214 215 216 217 218 219 219 220 220 220 220 221 222 221 219 219 219 219 220 222 223 224 226 229 231 232 232 234 235 235 233 232 231 230 230 230 231 232 234 235 237 238 240 242 243 244 246 247 248 249 248 248 247 247 247 248
228 224 218 214 215 217 216 216 217 217 218 219 219 219 219 219 220 220 220 221 220 218 219 219 219 220 221 223 225 228 229 230 231 232 234 235 235 234 233 232 231 231 231 232 232 234 235 237 239 241 243 244 245 246 248 249 249 250 250 249 249 249 251
236 233 223 214 212 215 217 218 218 218 219 219 220 220 220 220 220 220 220 221 219 219 219 218 218 220 222 224 228 230 229 229 230 231 232 233 234 234 233 232 232 231 232 232 233 234 236 237 239 241 242 244 245 247 248 249 250 251 251 251 251 252 254
236 236 230 220 215 215 216 217 217 218 219 220 221 221 220 221 221 221 220 220 220 220 220 218 218 220 223 227 230 229 228 228 229 230 231 232 233 234 234 233 232 231 232 233 233 234 235 237 239 240 242 243 245 247 248 250 251 252 252 253 253 254 256
236 235 230 223 218 217 216 215 215 218 220 222 223 222 222 222 221 221 220 220 222 222 220 219 219 221 225 229 229 228 228 229 229 230 231 232 232 233 233 233 233 232 232 232 233 234 235 236 238 240 242 244 245 247 249 251 252 253 253 254 254 256 258
242 238 229 222 220 220 219 220 221 223 224 225 225 225 226 225 223 224 226 226 225 222 219 219 221 223 225 227 227 227 228 228 228 229 231 231 231 231 232 233 233 233 232 232 233 233 234 236 238 240 242 244 245 247 250 252 253 254 254 255 256 257 258
249 244 231 222 221 223 222 223 225 226 226 227 228 230 229 227 228 231 233 230 225 221 220 222 223 224 225 226 226 227 228 227 228 230 231 230 229 229 230 232 233 233 232 232 232 233 234 235 237 239 241 243 245 248 250 252 253 254 255 255 256 257 257
257 251 233 221 221 225 226 226 226 227 228 228 230 231 229 228 230 233 233 229 225 223 224 225 225 226 226 226 226 227 227 227 228 230 230 229 228 228 230 232 232 232 232 232 232 233 234 235 236 238 240 242 245 247 249 251 253 254 255 255 255 255 255
256 252 237 225 221 224 226 228 230 233 236 235 232 229 228 229 231 232 230 228 226 225 226 225 225 227 226 225 226 227 227 228 228 229 228 227 227 228 230 231 231 231 231 231 232 233 234 235 236 238 239 241 243 246 248 251 252 254 255 255 255 254 253
166 231 237 232 227 225 227 229 230 233 237 237 233 231 230 230 230 230 228 227 226 225 225 224 225 226 227 227 227 227 227 228 227 227 227 227 227 229 230 231 231 230 230 230 231 232 234 234 236 237 239 241 243 245 248 250 252 254 255 255 256 254 254
99 126 197 223 230 234 237 238 236 234 234 233 232 232 231 228 226 227 227 226 226 226 225 225 227 228 229 230 230 229 229 228 226 226 228 229 229 230 231 231 231 230 229 230 231 232 233 234 235 237 239 241 243 245 248 250 252 254 255 257 257 255 255
87 87 93 115 174 220 235 241 241 240 238 237 236 233 228 224 224 225 227 227 228 227 226 228 231 232 233 234 233 230 228 227 227 228 230 232 233 232 232 231 231 230 229 230 231 232 233 233 234 236 238 239 242 245 247 250 252 254 255 257 257 257 256
77 75 72 76 84 95 158 229 240 245 246 245 245 243 236 231 228 228 230 231 229 229 231 236 239 239 237 236 232 229 228 228 228 230 232 234 235 234 233 232 231 230 229 230 231 231 232 233 234 235 236 238 241 243 245 247 250 253 254 256 256 256 255
62 55 49 49 47 52 56 51 262 292 276 260 253 249 244 240 236 235 236 235 232 233 238 244 247 246 242 238 234 231 231 231 231 232 233 235 235 234 232 231 231 231 232 231 230 230 231 232 233 234 236 238 239 241 243 246 248 250 251 253 254 253 251
58 47 42 34 16 8 5 354 350 359 355 338 296 267 254 248 245 244 243 240 239 242 245 246 247 246 243 239 236 235 235 234 234 233 233 234 234 233 232 231 231 232 232 231 230 229 229 230 231 232 234 236 238 240 242 243 245 248 248 248 247 247 246
77 60 36 20 2 348 344 339 327 321 328 333 329 316 292 271 260 255 252 250 251 254 253 249 247 244 240 238 237 236 236 237 236 235 233 233 233 233 232 230 229 230 230 230 229 228 228 229 229 230 232 234 235 237 238 240 242 242 242 242 240 240 241
85 81 62 339 329 327 329 329 323 318 314 306 299 296 290 286 279 268 261 260 262 261 255 250 248 246 243 242 241 239 238 238 238 236 234 232 231 231 230 229 227 228 228 229 229 228 227 227 227 228 229 230 231 232 233 235 236 235 234 235 235 236 238
69 67 52 265 264 279 296 310 319 317 308 297 288 276 266 266 269 269 267 264 263 259 254 251 248 246 245 245 245 244 242 238 235 235 234 231 227 226 227 226 225 224 225 226 226 226 226 226 225 226 227 227 227 229 229 229 228 226 227 230 232 234 235
67 51 353 274 263 263 269 279 288 290 289 286 280 275 270 265 263 264 264 261 256 253 252 250 247 246 247 247 246 246 242 236 231 230 230 227 225 224 224 224 223 222 222 223 224 224 225 225 224 223 224 224 224 224 224 222 221 221 225 229 230 229 226
56 41 22 350 313 298 290 287 284 280 277 275 272 271 270 268 266 267 265 263 259 257 256 254 251 250 251 249 247 244 240 234 230 227 225 223 222 221 220 221 221 221 221 222 222 221 221 222 223 221 219 219 219 218 218 218 218 221 226 228 226 222 220
24 9 2 0 351 341 333 322 313 302 292 285 279 273 270 270 272 273 271 267 263 259 258 260 260 258 256 253 248 243 239 234 231 227 224 222 220 218 217 217 218 220 224 226 224 221 219 218 218 219 216 214 213 213 213 214 219 225 227 227 224 220 218
5 348 339 339 338 332 326 319 315 312 310 310 308 304 301 298 294 290 284 278 272 266 263 264 266 264 259 253 247 242 239 235 231 228 224 220 217 217 218 219 219 221 225 227 225 224 224 220 215 214 214 214 214 213 213 216 223 227 228 227 224 219 216
13 355 345 339 331 324 321 316 311 311 317 325 326 323 319 315 311 306 299 289 281 275 271 271 272 270 263 256 249 243 237 232 227 224 220 216 214 214 214 215 216 217 219 220 220 222 223 220 215 210 209 210 214 217 222 227 229 226 223 219 212 206 205
45 37 29 18 7 1 352 334 317 310 311 315 320 323 323 322 320 318 313 305 293 280 271 267 266 262 256 252 248 243 237 230 225 220 216 213 213 212 209 206 205 207 210 214 218 220 219 216 210 206 205 209 213 216 219 222 221 217 210 201 193 190 193
65 60 55 50 48 44 35 25 14 1 341 320 320 329 334 334 334 334 334 329 318 304 289 273 261 252 244 240 237 234 232 228 223 218 213 209 208 207 205 201 196 191 192 197 205 210 210 207 202 198 199 203 208 208 204 198 196 198 193 186 184 186 188